Location: Ch?enovice
(49.7164°N, 15.2160°E)
Time: 19:51:21
(UTC+00:00)

Cosmos 1315 Rocket - Pass Details

Date: 23 May 2024
Orbit: 515 x 542 km, 81.2° (Epoch: 20 June)

Event Time Altitude Azimuth Distance (km) Brightness Sun altitude
Exits shadow 00:05:04 23° 137° (SE) 1,139 4.1 -18.0°
Maximum altitude 00:06:41 33° 93° (E) 903 4.0 -17.9°
Drops below altitude 10° 00:10:13 10° 29° (NNE) 1,786 6.7 -17.7°
Sets 00:12:31 0° 20° (NNE) 2,687 8.1 -17.6°
